Time,TemperatureF,DewpointF,PressureIn,WindDirection,WindDirectionDegrees,WindSpeedMPH,WindSpeedGustMPH,Humidity,HourlyPrecipIn,Conditions,Clouds,dailyrainin,SoftwareType,DateUTC
2013-01-08 00:00:00,41.4,26.9,30.34,SSE,150,6.0,9.0,56,0.00,,,0.00,Wunderground v.1.13,2013-01-08 05:00:00,
2013-01-08 00:10:00,41.2,27.1,30.35,SE,140,7.0,7.0,57,0.00,,,0.00,Wunderground v.1.13,2013-01-08 05:10:00,
2013-01-08 00:20:00,41.0,26.9,30.34,SE,138,6.0,6.0,57,0.00,,,0.00,Wunderground v.1.13,2013-01-08 05:20:00,
2013-01-08 00:30:00,40.9,26.8,30.33,SE,130,6.0,6.0,57,0.00,,,0.00,Wunderground v.1.13,2013-01-08 05:30:00,
2013-01-08 00:40:00,41.1,27.0,30.34,SSE,164,8.0,11.0,57,0.00,,,0.00,Wunderground v.1.13,2013-01-08 05:40:00,
2013-01-08 00:50:00,41.2,27.1,30.34,ESE,121,11.0,11.0,57,0.00,,,0.00,Wunderground v.1.13,2013-01-08 05:50:00,
2013-01-08 01:00:00,41.0,26.9,30.34,SSE,153,10.0,10.0,57,0.00,,,0.00,Wunderground v.1.13,2013-01-08 06:00:00,
2013-01-08 01:10:00,40.8,26.7,30.34,SSE,159,7.0,7.0,57,0.00,,,0.00,Wunderground v.1.13,2013-01-08 06:10:00,
2013-01-08 01:20:00,40.8,26.7,30.34,SSE,150,8.0,11.0,57,0.00,,,0.00,Wunderground v.1.13,2013-01-08 06:20:00,
2013-01-08 01:30:00,40.6,27.0,30.34,ESE,114,8.0,8.0,58,0.00,,,0.00,Wunderground v.1.13,2013-01-08 06:30:00,
2013-01-08 01:40:00,40.8,27.2,30.34,ESE,106,9.0,9.0,58,0.00,,,0.00,Wunderground v.1.13,2013-01-08 06:40:00,
2013-01-08 01:50:00,40.8,27.2,30.34,ESE,120,8.0,8.0,58,0.00,,,0.00,Wunderground v.1.13,2013-01-08 06:50:00,
2013-01-08 02:00:00,40.7,27.1,30.35,SE,139,7.0,7.0,58,0.00,,,0.00,Wunderground v.1.13,2013-01-08 07:00:00,
2013-01-08 02:10:00,40.5,27.3,30.35,ESE,121,8.0,11.0,59,0.00,,,0.00,Wunderground v.1.13,2013-01-08 07:10:00,
2013-01-08 02:20:00,40.5,27.3,30.35,SSE,165,8.0,9.0,59,0.00,,,0.00,Wunderground v.1.13,2013-01-08 07:20:00,
2013-01-08 02:30:00,40.2,27.4,30.36,SSE,150,7.0,9.0,60,0.00,,,0.00,Wunderground v.1.13,2013-01-08 07:30:00,
2013-01-08 02:40:00,40.2,27.4,30.35,SE,136,7.0,7.0,60,0.00,,,0.00,Wunderground v.1.13,2013-01-08 07:40:00,
2013-01-08 02:50:00,40.1,27.3,30.35,SSE,164,6.0,6.0,60,0.00,,,0.00,Wunderground v.1.13,2013-01-08 07:50:00,
2013-01-08 03:00:00,40.0,27.2,30.35,SE,132,5.0,5.0,60,0.00,,,0.00,Wunderground v.1.13,2013-01-08 08:00:00,
2013-01-08 03:10:00,39.8,27.0,30.35,SSE,151,5.0,8.0,60,0.00,,,0.00,Wunderground v.1.13,2013-01-08 08:10:00,
2013-01-08 03:20:00,39.8,27.0,30.34,SE,145,6.0,12.0,60,0.00,,,0.00,Wunderground v.1.13,2013-01-08 08:20:00,
2013-01-08 03:30:00,39.8,27.0,30.35,SE,130,7.0,11.0,60,0.00,,,0.00,Wunderground v.1.13,2013-01-08 08:30:00,
2013-01-08 03:40:00,39.7,27.3,30.34,SE,130,8.0,12.0,61,0.00,,,0.00,Wunderground v.1.13,2013-01-08 08:40:00,
2013-01-08 03:50:00,39.4,27.1,30.34,SE,138,7.0,7.0,61,0.00,,,0.00,Wunderground v.1.13,2013-01-08 08:50:00,
2013-01-08 04:00:00,38.9,27.0,30.33,East,89,6.0,6.0,62,0.00,,,0.00,Wunderground v.1.13,2013-01-08 09:00:00,
2013-01-08 04:10:00,38.8,26.9,30.33,SE,141,5.0,5.0,62,0.00,,,0.00,Wunderground v.1.13,2013-01-08 09:10:00,
2013-01-08 04:20:00,38.9,26.6,30.33,East,100,4.0,4.0,61,0.00,,,0.00,Wunderground v.1.13,2013-01-08 09:20:00,
2013-01-08 04:30:00,38.8,26.5,30.33,East,101,5.0,5.0,61,0.00,,,0.00,Wunderground v.1.13,2013-01-08 09:30:00,
2013-01-08 04:40:00,38.7,26.8,30.33,SE,127,5.0,5.0,62,0.00,,,0.00,Wunderground v.1.13,2013-01-08 09:40:00,
2013-01-08 04:50:00,38.8,26.5,30.34,SSE,154,4.0,4.0,61,0.00,,,0.00,Wunderground v.1.13,2013-01-08 09:50:00,
2013-01-08 05:00:00,38.6,26.7,30.34,SE,130,3.0,3.0,62,0.00,,,0.00,Wunderground v.1.13,2013-01-08 10:00:00,
2013-01-08 05:10:00,38.4,26.5,30.33,ESE,122,2.0,3.0,62,0.00,,,0.00,Wunderground v.1.13,2013-01-08 10:10:00,
2013-01-08 05:20:00,38.0,26.1,30.33,NE,53,3.0,3.0,62,0.00,,,0.00,Wunderground v.1.13,2013-01-08 10:20:00,
2013-01-08 05:30:00,37.7,25.8,30.33,SSE,156,1.0,2.0,62,0.00,,,0.00,Wunderground v.1.13,2013-01-08 10:30:00,
2013-01-08 05:40:00,38.0,26.1,30.33,East,88,2.0,2.0,62,0.00,,,0.00,Wunderground v.1.13,2013-01-08 10:40:00,
2013-01-08 05:50:00,37.6,25.7,30.33,ENE,70,3.0,4.0,62,0.00,,,0.00,Wunderground v.1.13,2013-01-08 10:50:00,
2013-01-08 06:00:00,37.3,25.1,30.34,ENE,63,4.0,4.0,61,0.00,,,0.00,Wunderground v.1.13,2013-01-08 11:00:00,
2013-01-08 06:10:00,36.4,24.6,30.33,NE,51,3.0,3.0,62,0.00,,,0.00,Wunderground v.1.13,2013-01-08 11:10:00,
2013-01-08 06:20:00,35.0,24.0,30.34,NNE,32,3.0,3.0,64,0.00,,,0.00,Wunderground v.1.13,2013-01-08 11:20:00,
2013-01-08 06:30:00,33.3,23.9,30.35,NE,34,1.0,1.0,68,0.00,,,0.00,Wunderground v.1.13,2013-01-08 11:30:00,
2013-01-08 06:40:00,32.3,23.6,30.35,NE,34,1.0,2.0,70,0.00,,,0.00,Wunderground v.1.13,2013-01-08 11:40:00,
2013-01-08 06:50:00,31.6,23.3,30.35,NE,52,3.0,5.0,71,0.00,,,0.00,Wunderground v.1.13,2013-01-08 11:50:00,
2013-01-08 07:00:00,31.5,23.2,30.36,NE,56,3.0,4.0,71,0.00,,,0.00,Wunderground v.1.13,2013-01-08 12:00:00,
2013-01-08 07:10:00,30.6,22.6,30.36,ENE,57,3.0,4.0,72,0.00,,,0.00,Wunderground v.1.13,2013-01-08 12:10:00,
2013-01-08 07:20:00,30.5,22.9,30.35,NE,34,3.0,4.0,73,0.00,,,0.00,Wunderground v.1.13,2013-01-08 12:20:00,
2013-01-08 07:30:00,30.5,22.9,30.35,NE,51,3.0,3.0,73,0.00,,,0.00,Wunderground v.1.13,2013-01-08 12:30:00,
2013-01-08 07:40:00,30.0,22.7,30.35,NE,52,3.0,3.0,74,0.00,,,0.00,Wunderground v.1.13,2013-01-08 12:40:00,
2013-01-08 07:50:00,29.4,22.5,30.36,NE,53,3.0,4.0,75,0.00,,,0.00,Wunderground v.1.13,2013-01-08 12:50:00,
2013-01-08 08:00:00,29.6,23.0,30.38,NE,49,4.0,4.0,76,0.00,,,0.00,Wunderground v.1.13,2013-01-08 13:00:00,
2013-01-08 08:10:00,29.4,23.1,30.38,ENE,61,3.0,4.0,77,0.00,,,0.00,Wunderground v.1.13,2013-01-08 13:10:00,
2013-01-08 08:20:00,30.3,24.0,30.39,ENE,57,3.0,3.0,77,0.00,,,0.00,Wunderground v.1.13,2013-01-08 13:20:00,
2013-01-08 08:30:00,30.5,24.1,30.40,ENE,57,0.0,0.0,77,0.00,,,0.00,Wunderground v.1.13,2013-01-08 13:30:00,
2013-01-08 08:40:00,30.6,24.2,30.41,ENE,57,0.0,0.0,77,0.00,,,0.00,Wunderground v.1.13,2013-01-08 13:40:00,
2013-01-08 08:50:00,30.4,24.7,30.41,ENE,57,0.0,0.0,79,0.00,,,0.00,Wunderground v.1.13,2013-01-08 13:50:00,
2013-01-08 09:00:00,30.7,25.0,30.41,ENE,57,0.0,1.0,79,0.00,,,0.00,Wunderground v.1.13,2013-01-08 14:00:00,
2013-01-08 09:10:00,32.3,26.2,30.42,ENE,57,0.0,3.0,78,0.00,,,0.00,Wunderground v.1.13,2013-01-08 14:10:00,
2013-01-08 09:20:00,34.0,27.2,30.43,ENE,61,2.0,2.0,76,0.00,,,0.00,Wunderground v.1.13,2013-01-08 14:20:00,
2013-01-08 09:30:00,36.0,27.8,30.43,ENE,61,0.0,1.0,72,0.00,,,0.00,Wunderground v.1.13,2013-01-08 14:30:00,
2013-01-08 09:40:00,37.6,28.3,30.43,ENE,61,1.0,3.0,69,0.00,,,0.00,Wunderground v.1.13,2013-01-08 14:40:00,
2013-01-08 09:50:00,38.1,27.7,30.43,ENE,61,2.0,2.0,66,0.00,,,0.00,Wunderground v.1.13,2013-01-08 14:50:00,
2013-01-08 10:00:00,38.8,28.8,30.44,ENE,61,1.0,1.0,67,0.00,,,0.00,Wunderground v.1.13,2013-01-08 15:00:00,
2013-01-08 10:10:00,39.0,27.5,30.44,ENE,61,1.0,1.0,63,0.00,,,0.00,Wunderground v.1.13,2013-01-08 15:10:00,
2013-01-08 10:20:00,39.6,28.4,30.44,ENE,61,0.0,0.0,64,0.00,,,0.00,Wunderground v.1.13,2013-01-08 15:20:00,
2013-01-08 10:30:00,40.0,28.8,30.44,ENE,61,0.0,0.0,64,0.00,,,0.00,Wunderground v.1.13,2013-01-08 15:30:00,
2013-01-08 10:40:00,40.7,29.1,30.44,ENE,61,0.0,0.0,63,0.00,,,0.00,Wunderground v.1.13,2013-01-08 15:40:00,
2013-01-08 10:50:00,41.5,29.8,30.43,ENE,61,0.0,0.0,63,0.00,,,0.00,Wunderground v.1.13,2013-01-08 15:50:00,
2013-01-08 11:00:00,42.2,30.1,30.42,ENE,61,1.0,1.0,62,0.00,,,0.00,Wunderground v.1.13,2013-01-08 16:00:00,
2013-01-08 11:10:00,43.1,29.7,30.43,ENE,61,0.0,2.0,59,0.00,,,0.00,Wunderground v.1.13,2013-01-08 16:10:00,
2013-01-08 11:20:00,43.3,29.5,30.42,NNW,327,1.0,1.0,58,0.00,,,0.00,Wunderground v.1.13,2013-01-08 16:20:00,
2013-01-08 11:30:00,43.6,30.2,30.42,NNW,327,1.0,4.0,59,0.00,,,0.00,Wunderground v.1.13,2013-01-08 16:30:00,
2013-01-08 11:40:00,44.6,29.0,30.42,NNW,328,1.0,1.0,54,0.00,,,0.00,Wunderground v.1.13,2013-01-08 16:40:00,
2013-01-08 11:50:00,44.6,30.7,30.41,NNW,328,2.0,2.0,58,0.00,,,0.00,Wunderground v.1.13,2013-01-08 16:50:00,
2013-01-08 12:00:00,45.0,30.2,30.41,WNW,297,2.0,2.0,56,0.00,,,0.00,Wunderground v.1.13,2013-01-08 17:00:00,
2013-01-08 12:10:00,46.2,29.5,30.40,WNW,297,1.0,1.0,52,0.00,,,0.00,Wunderground v.1.13,2013-01-08 17:10:00,
2013-01-08 12:20:00,46.8,30.1,30.39,NE,53,0.0,0.0,52,0.00,,,0.00,Wunderground v.1.13,2013-01-08 17:20:00,
2013-01-08 12:30:00,47.6,29.9,30.39,NE,42,1.0,1.0,50,0.00,,,0.00,Wunderground v.1.13,2013-01-08 17:30:00,
2013-01-08 12:40:00,49.3,30.4,30.38,NE,43,0.0,1.0,48,0.00,,,0.00,Wunderground v.1.13,2013-01-08 17:40:00,
2013-01-08 12:50:00,49.1,31.2,30.38,NE,43,0.0,0.0,50,0.00,,,0.00,Wunderground v.1.13,2013-01-08 17:50:00,
2013-01-08 13:00:00,49.9,30.5,30.38,NE,43,1.0,1.0,47,0.00,,,0.00,Wunderground v.1.13,2013-01-08 18:00:00,
2013-01-08 13:10:00,50.8,30.7,30.37,NE,44,1.0,2.0,46,0.00,,,0.00,Wunderground v.1.13,2013-01-08 18:10:00,
2013-01-08 13:20:00,51.1,30.5,30.36,ENE,61,2.0,2.0,45,0.00,,,0.00,Wunderground v.1.13,2013-01-08 18:20:00,
2013-01-08 13:30:00,51.6,29.8,30.36,ENE,61,2.0,2.0,43,0.00,,,0.00,Wunderground v.1.13,2013-01-08 18:30:00,
2013-01-08 13:40:00,52.8,30.3,30.35,NNE,23,1.0,2.0,42,0.00,,,0.00,Wunderground v.1.13,2013-01-08 18:40:00,
2013-01-08 13:50:00,53.3,30.2,30.35,NE,55,2.0,2.0,41,0.00,,,0.00,Wunderground v.1.13,2013-01-08 18:50:00,
2013-01-08 14:00:00,53.5,31.5,30.34,North,355,3.0,6.0,43,0.00,,,0.00,Wunderground v.1.13,2013-01-08 19:00:00,
2013-01-08 14:10:00,53.7,31.1,30.34,ENE,64,4.0,4.0,42,0.00,,,0.00,Wunderground v.1.13,2013-01-08 19:10:00,
2013-01-08 14:20:00,53.8,32.4,30.34,East,88,3.0,7.0,44,0.00,,,0.00,Wunderground v.1.13,2013-01-08 19:20:00,
2013-01-08 14:30:00,54.0,32.6,30.33,North,355,3.0,5.0,44,0.00,,,0.00,Wunderground v.1.13,2013-01-08 19:30:00,
2013-01-08 14:40:00,53.7,31.1,30.33,NE,53,4.0,4.0,42,0.00,,,0.00,Wunderground v.1.13,2013-01-08 19:40:00,
2013-01-08 14:50:00,53.6,31.0,30.33,ENE,78,4.0,4.0,42,0.00,,,0.00,Wunderground v.1.13,2013-01-08 19:50:00,
2013-01-08 15:00:00,53.2,29.5,30.33,ENE,58,3.0,3.0,40,0.00,,,0.00,Wunderground v.1.13,2013-01-08 20:00:00,
2013-01-08 15:10:00,53.5,29.1,30.34,NE,53,2.0,2.0,39,0.00,,,0.00,Wunderground v.1.13,2013-01-08 20:10:00,
2013-01-08 15:20:00,53.5,27.2,30.34,North,355,3.0,5.0,36,0.00,,,0.00,Wunderground v.1.13,2013-01-08 20:20:00,
2013-01-08 15:30:00,53.6,26.6,30.34,NE,55,3.0,3.0,35,0.00,,,0.00,Wunderground v.1.13,2013-01-08 20:30:00,
2013-01-08 15:40:00,53.5,28.5,30.34,NE,47,3.0,3.0,38,0.00,,,0.00,Wunderground v.1.13,2013-01-08 20:40:00,
2013-01-08 15:50:00,53.6,29.2,30.35,NE,51,2.0,3.0,39,0.00,,,0.00,Wunderground v.1.13,2013-01-08 20:50:00,
2013-01-08 16:00:00,53.4,29.0,30.35,ENE,63,2.0,4.0,39,0.00,,,0.00,Wunderground v.1.13,2013-01-08 21:00:00,
2013-01-08 16:10:00,52.9,27.3,30.35,East,84,3.0,5.0,37,0.00,,,0.00,Wunderground v.1.13,2013-01-08 21:10:00,
2013-01-08 16:20:00,52.8,27.2,30.34,NE,55,4.0,4.0,37,0.00,,,0.00,Wunderground v.1.13,2013-01-08 21:20:00,
2013-01-08 16:30:00,52.4,26.2,30.34,NE,52,3.0,3.0,36,0.00,,,0.00,Wunderground v.1.13,2013-01-08 21:30:00,
2013-01-08 16:40:00,51.6,27.4,30.34,ENE,57,2.0,2.0,39,0.00,,,0.00,Wunderground v.1.13,2013-01-08 21:40:00,
2013-01-08 16:50:00,51.2,26.4,30.33,NE,42,1.0,1.0,38,0.00,,,0.00,Wunderground v.1.13,2013-01-08 21:50:00,
2013-01-08 17:00:00,51.2,27.1,30.33,NE,43,1.0,1.0,39,0.00,,,0.00,Wunderground v.1.13,2013-01-08 22:00:00,
2013-01-08 17:10:00,50.7,27.2,30.33,NE,43,1.0,1.0,40,0.00,,,0.00,Wunderground v.1.13,2013-01-08 22:10:00,
2013-01-08 17:20:00,50.0,27.2,30.33,NE,43,1.0,2.0,41,0.00,,,0.00,Wunderground v.1.13,2013-01-08 22:20:00,
2013-01-08 17:30:00,49.5,26.1,30.34,NE,43,0.0,1.0,40,0.00,,,0.00,Wunderground v.1.13,2013-01-08 22:30:00,
2013-01-08 17:40:00,49.0,25.7,30.33,NE,43,0.0,0.0,40,0.00,,,0.00,Wunderground v.1.13,2013-01-08 22:40:00,
2013-01-08 17:50:00,48.6,25.3,30.33,NE,43,0.0,0.0,40,0.00,,,0.00,Wunderground v.1.13,2013-01-08 22:50:00,
2013-01-08 18:00:00,48.0,25.4,30.33,NE,43,0.0,0.0,41,0.00,,,0.00,Wunderground v.1.13,2013-01-08 23:00:00,
2013-01-08 18:10:00,47.7,25.1,30.34,NE,43,0.0,0.0,41,0.00,,,0.00,Wunderground v.1.13,2013-01-08 23:10:00,
2013-01-08 18:20:00,46.4,25.6,30.34,NE,43,0.0,0.0,44,0.00,,,0.00,Wunderground v.1.13,2013-01-08 23:20:00,
2013-01-08 18:30:00,45.6,26.0,30.33,NE,43,0.0,0.0,46,0.00,,,0.00,Wunderground v.1.13,2013-01-08 23:30:00,
2013-01-08 18:40:00,43.8,26.3,30.33,NE,43,0.0,1.0,50,0.00,,,0.00,Wunderground v.1.13,2013-01-08 23:40:00,
2013-01-08 18:50:00,43.8,26.3,30.33,NE,43,0.0,0.0,50,0.00,,,0.00,Wunderground v.1.13,2013-01-08 23:50:00,
2013-01-08 19:00:00,43.9,26.4,30.33,NE,43,0.0,1.0,50,0.00,,,0.00,Wunderground v.1.13,2013-01-09 00:00:00,
2013-01-08 19:10:00,41.8,26.4,30.33,NE,43,0.0,2.0,54,0.00,,,0.00,Wunderground v.1.13,2013-01-09 00:10:00,
2013-01-08 19:20:00,42.0,26.1,30.33,NE,43,1.0,2.0,53,0.00,,,0.00,Wunderground v.1.13,2013-01-09 00:20:00,
2013-01-08 19:30:00,42.4,25.5,30.32,NE,43,2.0,2.0,51,0.00,,,0.00,Wunderground v.1.13,2013-01-09 00:30:00,
2013-01-08 19:40:00,41.8,25.9,30.33,NE,43,2.0,2.0,53,0.00,,,0.00,Wunderground v.1.13,2013-01-09 00:40:00,
2013-01-08 19:50:00,42.2,25.3,30.33,NE,43,2.0,2.0,51,0.00,,,0.00,Wunderground v.1.13,2013-01-09 00:50:00,
2013-01-08 20:00:00,41.0,26.1,30.33,NE,50,2.0,5.0,55,0.00,,,0.00,Wunderground v.1.13,2013-01-09 01:00:00,
2013-01-08 20:10:00,40.7,26.6,30.33,NE,42,3.0,3.0,57,0.00,,,0.00,Wunderground v.1.13,2013-01-09 01:10:00,
2013-01-08 20:20:00,41.8,26.4,30.34,ENE,57,2.0,3.0,54,0.00,,,0.00,Wunderground v.1.13,2013-01-09 01:20:00,
2013-01-08 20:30:00,42.8,26.8,30.33,ENE,61,2.0,3.0,53,0.00,,,0.00,Wunderground v.1.13,2013-01-09 01:30:00,
2013-01-08 20:40:00,41.5,27.0,30.33,ENE,64,3.0,4.0,56,0.00,,,0.00,Wunderground v.1.13,2013-01-09 01:40:00,
2013-01-08 20:50:00,41.8,28.1,30.33,NE,49,3.0,3.0,58,0.00,,,0.00,Wunderground v.1.13,2013-01-09 01:50:00,
2013-01-08 21:00:00,43.3,29.9,30.34,NE,49,2.0,2.0,59,0.00,,,0.00,Wunderground v.1.13,2013-01-09 02:00:00,
2013-01-08 21:10:00,43.6,30.2,30.34,ENE,63,2.0,3.0,59,0.00,,,0.00,Wunderground v.1.13,2013-01-09 02:10:00,
2013-01-08 21:20:00,42.1,30.0,30.34,NE,49,3.0,3.0,62,0.00,,,0.00,Wunderground v.1.13,2013-01-09 02:20:00,
2013-01-08 21:30:00,43.0,30.5,30.35,NE,49,1.0,1.0,61,0.00,,,0.00,Wunderground v.1.13,2013-01-09 02:30:00,
2013-01-08 21:40:00,41.1,30.6,30.34,ENE,59,2.0,4.0,66,0.00,,,0.00,Wunderground v.1.13,2013-01-09 02:40:00,
2013-01-08 21:50:00,41.2,31.1,30.34,NE,54,3.0,4.0,67,0.00,,,0.00,Wunderground v.1.13,2013-01-09 02:50:00,
2013-01-08 22:00:00,42.9,33.1,30.34,NE,35,3.0,3.0,68,0.00,,,0.00,Wunderground v.1.13,2013-01-09 03:00:00,
2013-01-08 22:10:00,44.5,34.6,30.34,ENE,64,3.0,4.0,68,0.00,,,0.00,Wunderground v.1.13,2013-01-09 03:10:00,
2013-01-08 22:20:00,44.5,34.2,30.34,NE,50,3.0,5.0,67,0.00,,,0.00,Wunderground v.1.13,2013-01-09 03:20:00,
2013-01-08 22:30:00,44.2,34.7,30.34,NE,53,3.0,3.0,69,0.00,,,0.00,Wunderground v.1.13,2013-01-09 03:30:00,
2013-01-08 22:40:00,44.3,34.8,30.34,ENE,67,3.0,3.0,69,0.00,,,0.00,Wunderground v.1.13,2013-01-09 03:40:00,
2013-01-08 22:50:00,44.3,34.4,30.34,East,82,4.0,5.0,68,0.00,,,0.00,Wunderground v.1.13,2013-01-09 03:50:00,
2013-01-08 23:00:00,44.2,34.3,30.34,East,79,4.0,7.0,68,0.00,,,0.00,Wunderground v.1.13,2013-01-09 04:00:00,
2013-01-08 23:10:00,45.0,35.1,30.34,ENE,65,3.0,3.0,68,0.00,,,0.00,Wunderground v.1.13,2013-01-09 04:10:00,
2013-01-08 23:20:00,46.0,36.0,30.34,East,101,3.0,3.0,68,0.00,,,0.00,Wunderground v.1.13,2013-01-09 04:20:00,
2013-01-08 23:30:00,46.6,36.6,30.33,NE,38,3.0,3.0,68,0.00,,,0.00,Wunderground v.1.13,2013-01-09 04:30:00,
2013-01-08 23:40:00,46.6,36.2,30.33,East,86,3.0,5.0,67,0.00,,,0.00,Wunderground v.1.13,2013-01-09 04:40:00,
2013-01-08 23:50:00,46.9,37.3,30.33,East,88,4.0,5.0,69,0.00,,,0.00,Wunderground v.1.13,2013-01-09 04:50:00,